| time (UTC) | temp C | wind direction | speed KPH | gust KPH | rain 1hr cm | rain 24hr cm | rain mn cm | humidity % | barometer mb |
| 20260906152404 | 10 | 248 | 0.0 | 4.8 | 0.00 | 0.43 | 0.03 | 98 | 1018.7 |
| 20260906151904 | 10 | 248 | 1.6 | 4.8 | 0.00 | 0.43 | 0.03 | 98 | 1018.7 |
| 20260906151354 | 10 | 255 | 0.0 | 1.6 | 0.00 | 0.43 | 0.03 | 98 | 1018.7 |
| 20260906151115 | 10 | 254 | 0.0 | 1.6 | 0.00 | 0.43 | 0.03 | 98 | 1018.7 |
| 20260906150357 | 10 | 254 | 0.0 | 0.0 | 0.00 | 0.43 | 0.03 | 98 | 1018.8 |
| 20260906145852 | 10 | 254 | 0.0 | 0.0 | 0.00 | 0.43 | 0.03 | 98 | 1018.9 |
| 20260906145340 | 10 | 254 | 0.0 | 0.0 | 0.00 | 0.43 | 0.03 | 98 | 1018.9 |
| 20260906145100 | 10 | 254 | 0.0 | 0.0 | 0.00 | 0.43 | 0.03 | 98 | 1018.8 |
| 20260906144340 | 9 | 254 | 0.0 | 0.0 | 0.00 | 0.43 | 0.03 | 98 | 1018.8 |
| 20260906143835 | 9 | 254 | 0.0 | 0.0 | 0.00 | 0.43 | 0.03 | 98 | 1018.8 |
| 20260906143330 | 9 | 254 | 0.0 | 0.0 | 0.00 | 0.43 | 0.03 | 98 | 1018.8 |
| 20260906142830 | 9 | 254 | 0.0 | 0.0 | 0.00 | 0.43 | 0.03 | 97 | 1018.9 |
| 20260906142333 | 9 | 254 | 0.0 | 1.6 | 0.00 | 0.43 | 0.03 | 97 | 1018.9 |
| 20260906141828 | 9 | 254 | 0.0 | 1.6 | 0.00 | 0.43 | 0.03 | 97 | 1018.7 |
| 20260906141320 | 9 | 254 | 0.0 | 0.0 | 0.00 | 0.43 | 0.03 | 97 | 1018.6 |
| 20260906140821 | 9 | 254 | 0.0 | 0.0 | 0.00 | 0.43 | 0.03 | 97 | 1018.6 |
| 20260906140321 | 9 | 254 | 0.0 | 0.0 | 0.00 | 0.43 | 0.03 | 97 | 1018.5 |
| 20260906135816 | 9 | 254 | 0.0 | 0.0 | 0.00 | 0.43 | 0.03 | 97 | 1018.5 |
| 20260906135316 | 9 | 254 | 0.0 | 0.0 | 0.00 | 0.43 | 0.03 | 97 | 1018.6 |
| 20260906134812 | 9 | 254 | 0.0 | 0.0 | 0.00 | 0.43 | 0.03 | 97 | 1018.6 |
| 20260906134534 | 9 | 254 | 0.0 | 0.0 | 0.00 | 0.43 | 0.03 | 97 | 1018.5 |
| 20260906133811 | 9 | 254 | 0.0 | 0.0 | 0.00 | 0.43 | 0.03 | 97 | 1018.7 |
| 20260906133533 | 9 | 254 | 0.0 | 0.0 | 0.00 | 0.43 | 0.03 | 97 | 1018.7 |
| 20260906132812 | 9 | 254 | 0.0 | 0.0 | 0.00 | 0.43 | 0.03 | 97 | 1018.7 |
| 20260906132307 | 10 | 254 | 0.0 | 0.0 | 0.00 | 0.43 | 0.03 | 97 | 1018.6 |
| 20260906131757 | 10 | 254 | 0.0 | 0.0 | 0.00 | 0.43 | 0.03 | 97 | 1018.5 |
| 20260906131520 | 10 | 254 | 0.0 | 0.0 | 0.00 | 0.43 | 0.03 | 97 | 1018.4 |
| 20260906130758 | 10 | 254 | 0.0 | 4.8 | 0.00 | 0.43 | 0.03 | 97 | 1018.5 |
| 20260906130253 | 10 | 254 | 0.0 | 4.8 | 0.00 | 0.43 | 0.03 | 97 | 1018.6 |
| 20260906125753 | 10 | 255 | 0.0 | 0.0 | 0.00 | 0.43 | 0.03 | 97 | 1018.2 |
| 20260906125249 | 10 | 255 | 0.0 | 0.0 | 0.00 | 0.43 | 0.03 | 97 | 1018.5 |
| 20260906124743 | 10 | 255 | 0.0 | 0.0 | 0.00 | 0.43 | 0.03 | 97 | 1018.6 |
| 20260906124244 | 10 | 255 | 0.0 | 1.6 | 0.00 | 0.43 | 0.03 | 97 | 1018.7 |
| 20260906123738 | 10 | 255 | 0.0 | 1.6 | 0.00 | 0.43 | 0.03 | 97 | 1018.7 |
| 20260906123232 | 10 | 254 | 0.0 | 1.6 | 0.00 | 0.43 | 0.03 | 97 | 1018.7 |
| 20260906122727 | 10 | 255 | 0.0 | 0.0 | 0.00 | 0.43 | 0.03 | 97 | 1018.6 |
| 20260906122220 | 10 | 255 | 0.0 | 0.0 | 0.00 | 0.43 | 0.03 | 97 | 1018.7 |
| 20260906121941 | 10 | 255 | 0.0 | 0.0 | 0.00 | 0.43 | 0.03 | 97 | 1018.7 |
| 20260906121426 | 10 | 255 | 0.0 | 0.0 | 0.00 | 0.43 | 0.03 | 97 | 1018.6 |
| 20260906120700 | 10 | 255 | 0.0 | 0.0 | 0.00 | 0.43 | 0.03 | 97 | 1018.8 |
| 20260906120148 | 10 | 255 | 0.0 | 0.0 | 0.00 | 0.43 | 0.03 | 97 | 1018.8 |
| 20260906115644 | 10 | 255 | 0.0 | 0.0 | 0.00 | 0.43 | 0.03 | 97 | 1019.1 |
| 20260906115406 | 10 | 255 | 0.0 | 0.0 | 0.00 | 0.43 | 0.03 | 97 | 1019.1 |
| 20260906114640 | 10 | 255 | 0.0 | 3.2 | 0.00 | 0.43 | 0.03 | 97 | 1018.9 |
| 20260906114140 | 10 | 255 | 0.0 | 3.2 | 0.00 | 0.43 | 0.03 | 97 | 1019.4 |
| 20260906113640 | 10 | 255 | 0.0 | 0.0 | 0.00 | 0.43 | 0.03 | 97 | 1019.1 |
| 20260906113136 | 10 | 255 | 0.0 | 4.8 | 0.00 | 0.43 | 0.03 | 97 | 1019.4 |
| 20260906112639 | 10 | 255 | 0.0 | 4.8 | 0.00 | 0.43 | 0.03 | 97 | 1019.4 |
| 20260906112126 | 10 | 254 | 0.0 | 4.8 | 0.00 | 0.43 | 0.03 | 97 | 1019.5 |
| 20260906111626 | 10 | 144 | 0.0 | 0.0 | 0.00 | 0.43 | 0.03 | 97 | 1019.4 |
| 20260906111126 | 10 | 144 | 0.0 | 0.0 | 0.00 | 0.43 | 0.03 | 97 | 1019.5 |
| 20260906110623 | 10 | 144 | 0.0 | 0.0 | 0.00 | 0.43 | 0.03 | 97 | 1019.5 |
| 20260906110339 | 10 | 144 | 0.0 | 1.6 | 0.00 | 0.43 | 0.03 | 97 | 1019.8 |
| 20260906105617 | 10 | 144 | 0.0 | 1.6 | 0.00 | 0.43 | 0.03 | 97 | 1019.7 |
| 20260906105117 | 10 | 144 | 0.0 | 0.0 | 0.00 | 0.43 | 0.03 | 97 | 1019.8 |
| 20260906104612 | 10 | 144 | 0.0 | 0.0 | 0.00 | 0.43 | 0.03 | 97 | 1019.7 |
| 20260906104112 | 10 | 144 | 0.0 | 0.0 | 0.00 | 0.43 | 0.03 | 97 | 1019.4 |
| 20260906103612 | 10 | 144 | 0.0 | 3.2 | 0.00 | 0.43 | 0.03 | 97 | 1019.2 |
| 20260906103115 | 10 | 144 | 0.0 | 3.2 | 0.00 | 0.43 | 0.03 | 97 | 1019.5 |
| 20260906102610 | 10 | 144 | 0.0 | 0.0 | 0.00 | 0.43 | 0.03 | 97 | 1018.9 |
| 20260906102053 | 10 | 144 | 0.0 | 0.0 | 0.00 | 0.43 | 0.03 | 97 | 1019.4 |
| 20260906101542 | 10 | 144 | 0.0 | 0.0 | 0.00 | 0.43 | 0.03 | 97 | 1019.8 |
| 20260906101307 | 10 | 144 | 0.0 | 0.0 | 0.00 | 0.43 | 0.03 | 97 | 1019.9 |
| 20260906100543 | 10 | 144 | 0.0 | 0.0 | 0.00 | 0.43 | 0.03 | 97 | 1019.6 |
| 20260906100046 | 10 | 144 | 0.0 | 0.0 | 0.00 | 0.43 | 0.03 | 97 | 1019.5 |
| 20260906095543 | 10 | 144 | 0.0 | 0.0 | 0.00 | 0.43 | 0.03 | 97 | 1019.5 |
| 20260906095039 | 10 | 144 | 0.0 | 0.0 | 0.00 | 0.43 | 0.03 | 97 | 1019.6 |
| 20260906094534 | 10 | 144 | 0.0 | 0.0 | 0.00 | 0.43 | 0.03 | 97 | 1019.6 |
| 20260906094031 | 10 | 144 | 0.0 | 0.0 | 0.00 | 0.43 | 0.03 | 97 | 1019.7 |
| 20260906093529 | 10 | 144 | 0.0 | 0.0 | 0.00 | 0.43 | 0.03 | 97 | 1019.9 |
| 20260906093029 | 10 | 144 | 0.0 | 0.0 | 0.00 | 0.43 | 0.03 | 97 | 1019.6 |
| 20260906092529 | 10 | 144 | 0.0 | 0.0 | 0.00 | 0.43 | 0.03 | 97 | 1019.6 |
| 20260906092032 | 10 | 144 | 0.0 | 0.0 | 0.00 | 0.43 | 0.03 | 97 | 1019.7 |
| 20260906091527 | 10 | 144 | 0.0 | 0.0 | 0.00 | 0.43 | 0.03 | 97 | 1019.6 |
| 20260906091019 | 10 | 144 | 0.0 | 0.0 | 0.00 | 0.43 | 0.03 | 97 | 1019.6 |
| 20260906090510 | 10 | 144 | 0.0 | 0.0 | 0.00 | 0.43 | 0.03 | 97 | 1019.4 |
| 20260906090004 | 10 | 144 | 0.0 | 0.0 | 0.00 | 0.43 | 0.03 | 97 | 1019.4 |
| 20260906085505 | 10 | 144 | 0.0 | 0.0 | 0.00 | 0.43 | 0.03 | 97 | 1019.3 |
| 20260906085005 | 10 | 144 | 0.0 | 0.0 | 0.00 | 0.43 | 0.03 | 97 | 1019.3 |
| 20260906084508 | 10 | 144 | 0.0 | 0.0 | 0.03 | 0.43 | 0.03 | 97 | 1019.3 |
| 20260906084225 | 10 | 144 | 0.0 | 0.0 | 0.03 | 0.43 | 0.03 | 97 | 1019.5 |
| 20260906083456 | 10 | 144 | 0.0 | 0.0 | 0.03 | 0.43 | 0.03 | 97 | 1019.4 |
| 20260906082956 | 10 | 144 | 0.0 | 0.0 | 0.03 | 0.43 | 0.03 | 97 | 1019.6 |
| 20260906082456 | 10 | 144 | 0.0 | 0.0 | 0.03 | 0.43 | 0.03 | 97 | 1019.7 |
| 20260906081946 | 10 | 144 | 0.0 | 0.0 | 0.03 | 0.43 | 0.03 | 97 | 1019.7 |
| 20260906081932 | 10 | 144 | 0.0 | 0.0 | 0.03 | 0.43 | 0.03 | 97 | 1019.8 |
| 20260906080944 | 10 | 144 | 0.0 | 0.0 | 0.03 | 0.43 | 0.03 | 97 | 1019.8 |
| 20260906080437 | 10 | 144 | 0.0 | 0.0 | 0.03 | 0.43 | 0.03 | 97 | 1019.9 |
| 20260906075932 | 10 | 144 | 0.0 | 0.0 | 0.03 | 0.43 | 0.03 | 97 | 1019.9 |
| 20260906075416 | 10 | 144 | 0.0 | 0.0 | 0.03 | 0.43 | 0.03 | 97 | 1020.1 |
| 20260906074911 | 10 | 144 | 0.0 | 0.0 | 0.03 | 0.43 | 0.03 | 97 | 1020.3 |
| 20260906074414 | 10 | 144 | 0.0 | 0.0 | 0.00 | 0.41 | 0.00 | 97 | 1020.1 |
| 20260906074352 | 10 | 144 | 0.0 | 0.0 | 0.00 | 0.41 | 0.00 | 96 | 1020.1 |
| 20260906073635 | 10 | 144 | 0.0 | 0.0 | 0.00 | 0.41 | 0.00 | 96 | 1019.9 |
| 20260906072912 | 10 | 144 | 0.0 | 0.0 | 0.00 | 0.41 | 0.00 | 96 | 1019.9 |
| 20260906072633 | 10 | 144 | 0.0 | 0.0 | 0.00 | 0.41 | 0.00 | 96 | 1020.1 |
| 20260906071900 | 10 | 144 | 0.0 | 0.0 | 0.00 | 0.41 | 0.00 | 96 | 1020.1 |
| 20260906071358 | 10 | 144 | 0.0 | 0.0 | 0.00 | 0.41 | 0.00 | 96 | 1020.1 |
| 20260906071117 | 10 | 144 | 0.0 | 0.0 | 0.00 | 0.41 | 0.00 | 96 | 1020.1 |
| 20260906070353 | 10 | 144 | 0.0 | 0.0 | 0.00 | 0.41 | 0.00 | 96 | 1020.1 |
| 20260906070334 | 10 | 144 | 0.0 | 0.0 | 0.00 | 0.41 | 0.00 | 96 | 1020.1 |
| 20260906065353 | 10 | 144 | 0.0 | 0.0 | 0.00 | 0.41 | 0.00 | 96 | 1020.1 |
| 20260906064853 | 10 | 144 | 0.0 | 0.0 | 0.00 | 0.41 | 0.00 | 96 | 1019.9 |
| 20260906064353 | 10 | 144 | 0.0 | 0.0 | 0.00 | 0.41 | 0.00 | 96 | 1020.2 |
| 20260906063853 | 10 | 144 | 0.0 | 0.0 | 0.00 | 0.41 | 0.00 | 96 | 1020.1 |
| 20260906063349 | 10 | 144 | 0.0 | 0.0 | 0.00 | 0.41 | 0.00 | 96 | 1020.1 |
| 20260906062843 | 10 | 144 | 0.0 | 0.0 | 0.00 | 0.41 | 0.00 | 96 | 1020.1 |
| 20260906062343 | 10 | 144 | 0.0 | 0.0 | 0.00 | 0.41 | 0.00 | 96 | 1020.1 |
| 20260906061839 | 10 | 144 | 0.0 | 0.0 | 0.00 | 0.41 | 0.00 | 96 | 1020.2 |
| 20260906061333 | 10 | 144 | 0.0 | 0.0 | 0.00 | 0.41 | 0.00 | 96 | 1020.3 |
| 20260906060835 | 10 | 144 | 0.0 | 0.0 | 0.00 | 0.41 | 0.00 | 96 | 1020.3 |
| 20260906060557 | 11 | 144 | 0.0 | 0.0 | 0.00 | 0.41 | 0.00 | 96 | 1020.3 |
| 20260906055830 | 11 | 144 | 0.0 | 0.0 | 0.15 | 0.41 | 0.41 | 96 | 1020.3 |
| 20260906055543 | 11 | 144 | 0.0 | 0.0 | 0.36 | 0.41 | 0.41 | 95 | 1020.2 |
| 20260906054827 | 11 | 144 | 0.0 | 0.0 | 0.36 | 0.41 | 0.41 | 95 | 1020.2 |
| 20260906054537 | 11 | 144 | 0.0 | 0.0 | 0.36 | 0.41 | 0.41 | 96 | 1020.2 |
| 20260906053815 | 11 | 144 | 0.0 | 0.0 | 0.36 | 0.41 | 0.41 | 96 | 1020.1 |
| 20260906053315 | 11 | 144 | 0.0 | 0.0 | 0.36 | 0.41 | 0.41 | 96 | 1020.2 |
| 20260906052815 | 11 | 144 | 0.0 | 0.0 | 0.36 | 0.41 | 0.41 | 96 | 1020.2 |
| 20260906052310 | 11 | 144 | 0.0 | 1.6 | 0.36 | 0.41 | 0.41 | 96 | 1020.3 |
| 20260906051806 | 11 | 144 | 0.0 | 1.6 | 0.36 | 0.41 | 0.41 | 96 | 1020.3 |
| 20260906051306 | 11 | 144 | 0.0 | 0.0 | 0.36 | 0.41 | 0.41 | 96 | 1020.4 |
| 20260906050807 | 11 | 144 | 0.0 | 3.2 | 0.36 | 0.41 | 0.41 | 96 | 1020.5 |
| 20260906050306 | 11 | 144 | 0.0 | 3.2 | 0.36 | 0.41 | 0.41 | 96 | 1020.7 |
| 20260906045806 | 11 | 144 | 0.0 | 3.2 | 0.20 | 0.25 | 0.25 | 96 | 1020.8 |
| 20260906045309 | 11 | 144 | 0.0 | 0.0 | 0.00 | 0.05 | 0.05 | 96 | 1021.1 |
| 20260906044803 | 11 | 144 | 0.0 | 0.0 | 0.00 | 0.05 | 0.05 | 95 | 1020.3 |
| 20260906044302 | 11 | 144 | 0.0 | 0.0 | 0.00 | 0.05 | 0.05 | 95 | 1020.1 |
| 20260906043802 | 11 | 144 | 0.0 | 0.0 | 0.00 | 0.05 | 0.05 | 95 | 1020.2 |
| 20260906043302 | 11 | 144 | 0.0 | 0.0 | 0.00 | 0.05 | 0.05 | 95 | 1020.1 |
| 20260906042758 | 11 | 144 | 0.0 | 0.0 | 0.00 | 0.05 | 0.05 | 95 | 1019.9 |
| 20260906042255 | 11 | 144 | 0.0 | 1.6 | 0.00 | 0.05 | 0.05 | 95 | 1020.1 |
| 20260906041733 | 11 | 144 | 0.0 | 1.6 | 0.00 | 0.05 | 0.05 | 95 | 1020.1 |
| 20260906041453 | 11 | 144 | 0.0 | 0.0 | 0.00 | 0.05 | 0.05 | 95 | 1019.7 |
| 20260906040723 | 11 | 144 | 0.0 | 0.0 | 0.00 | 0.05 | 0.05 | 94 | 1019.9 |
| 20260906040450 | 11 | 144 | 0.0 | 0.0 | 0.00 | 0.05 | 0.05 | 94 | 1019.8 |
| 20260906035713 | 11 | 144 | 0.0 | 0.0 | 0.00 | 0.05 | 0.05 | 94 | 1019.7 |
| 20260906035213 | 11 | 144 | 0.0 | 0.0 | 0.00 | 0.05 | 0.05 | 93 | 1019.7 |
| 20260906034708 | 11 | 144 | 0.0 | 0.0 | 0.00 | 0.05 | 0.05 | 93 | 1019.7 |
| 20260906034208 | 11 | 144 | 0.0 | 0.0 | 0.00 | 0.05 | 0.05 | 93 | 1019.6 |
| 20260906033659 | 11 | 144 | 0.0 | 0.0 | 0.00 | 0.05 | 0.05 | 93 | 1019.6 |
| 20260906033156 | 11 | 144 | 0.0 | 0.0 | 0.00 | 0.05 | 0.05 | 93 | 1019.6 |
| 20260906032638 | 11 | 144 | 0.0 | 0.0 | 0.00 | 0.05 | 0.05 | 93 | 1019.6 |
| 20260906032139 | 11 | 144 | 0.0 | 4.8 | 0.00 | 0.05 | 0.05 | 93 | 1019.4 |
| 20260906031634 | 11 | 144 | 0.0 | 4.8 | 0.00 | 0.05 | 0.05 | 93 | 1019.4 |
| 20260906031129 | 11 | 144 | 0.0 | 4.8 | 0.00 | 0.05 | 0.05 | 92 | 1019.3 |
| 20260906030846 | 11 | 144 | 0.0 | 3.2 | 0.00 | 0.05 | 0.05 | 92 | 1019.3 |
| 20260906030120 | 11 | 144 | 0.0 | 0.0 | 0.00 | 0.05 | 0.05 | 92 | 1019.4 |
| 20260906025615 | 11 | 144 | 0.0 | 0.0 | 0.00 | 0.05 | 0.05 | 92 | 1019.3 |
| 20260906025115 | 11 | 144 | 0.0 | 0.0 | 0.00 | 0.05 | 0.05 | 92 | 1019.1 |
| 20260906024610 | 12 | 144 | 0.0 | 0.0 | 0.00 | 0.05 | 0.05 | 91 | 1019.3 |
| 20260906024334 | 12 | 144 | 0.0 | 0.0 | 0.00 | 0.05 | 0.05 | 91 | 1019.1 |
| 20260906023610 | 12 | 144 | 0.0 | 0.0 | 0.00 | 0.05 | 0.05 | 91 | 1018.9 |
| 20260906023110 | 12 | 144 | 0.0 | 0.0 | 0.00 | 0.05 | 0.05 | 90 | 1018.8 |
| 20260906022611 | 12 | 144 | 0.0 | 0.0 | 0.00 | 0.05 | 0.05 | 90 | 1018.7 |
| 20260906022108 | 12 | 144 | 0.0 | 0.0 | 0.00 | 0.05 | 0.05 | 89 | 1018.8 |
| 20260906021601 | 12 | 144 | 0.0 | 0.0 | 0.00 | 0.05 | 0.05 | 89 | 1018.7 |
| 20260906021056 | 13 | 144 | 0.0 | 0.0 | 0.00 | 0.05 | 0.05 | 89 | 1018.7 |
| 20260906020543 | 13 | 144 | 0.0 | 0.0 | 0.00 | 0.05 | 0.05 | 89 | 1018.8 |
| 20260906020250 | 13 | 144 | 0.0 | 0.0 | 0.00 | 0.05 | 0.05 | 88 | 1018.7 |
| 20260906015515 | 13 | 144 | 0.0 | 1.6 | 0.00 | 0.05 | 0.05 | 88 | 1018.7 |
| 20260906015017 | 13 | 144 | 0.0 | 1.6 | 0.00 | 0.05 | 0.05 | 87 | 1018.7 |
| 20260906014515 | 13 | 144 | 0.0 | 0.0 | 0.00 | 0.05 | 0.05 | 86 | 1018.7 |
| 20260906014239 | 13 | 144 | 0.0 | 0.0 | 0.00 | 0.05 | 0.05 | 86 | 1018.7 |
| 20260906013519 | 14 | 144 | 0.0 | 0.0 | 0.00 | 0.05 | 0.05 | 85 | 1018.8 |
| 20260906013017 | 14 | 144 | 0.0 | 0.0 | 0.00 | 0.05 | 0.05 | 84 | 1018.7 |
| 20260906012506 | 15 | 144 | 0.0 | 0.0 | 0.00 | 0.05 | 0.05 | 82 | 1018.5 |
| 20260906012002 | 15 | 144 | 0.0 | 0.0 | 0.00 | 0.05 | 0.05 | 82 | 1018.5 |
| 20260906011456 | 15 | 144 | 0.0 | 0.0 | 0.00 | 0.05 | 0.05 | 81 | 1018.5 |
| 20260906010959 | 16 | 144 | 0.0 | 0.0 | 0.00 | 0.05 | 0.05 | 81 | 1018.4 |
| 20260906010455 | 16 | 144 | 0.0 | 0.0 | 0.00 | 0.05 | 0.05 | 80 | 1018.4 |
| 20260906005932 | 16 | 144 | 0.0 | 0.0 | 0.00 | 0.05 | 0.05 | 78 | 1018.4 |
| 20260906005432 | 17 | 144 | 0.0 | 0.0 | 0.00 | 0.05 | 0.05 | 77 | 1018.4 |
| 20260906004931 | 17 | 144 | 0.0 | 0.0 | 0.00 | 0.05 | 0.05 | 77 | 1018.3 |
| 20260906004436 | 17 | 144 | 0.0 | 0.0 | 0.00 | 0.05 | 0.05 | 78 | 1018.4 |
| 20260906003912 | 18 | 144 | 0.0 | 0.0 | 0.00 | 0.05 | 0.05 | 76 | 1018.4 |
| 20260906003408 | 18 | 144 | 0.0 | 0.0 | 0.00 | 0.05 | 0.05 | 77 | 1018.4 |
| 20260906002903 | 18 | 144 | 0.0 | 0.0 | 0.00 | 0.05 | 0.05 | 78 | 1018.4 |
| 20260906002403 | 18 | 144 | 0.0 | 0.0 | 0.00 | 0.05 | 0.05 | 77 | 1018.4 |
| 20260906001903 | 18 | 144 | 0.0 | 0.0 | 0.00 | 0.05 | 0.05 | 73 | 1018.5 |
| 20260906001358 | 18 | 144 | 0.0 | 0.0 | 0.00 | 0.05 | 0.05 | 68 | 1018.5 |
| 20260906000858 | 18 | 144 | 0.0 | 0.0 | 0.00 | 0.05 | 0.05 | 71 | 1018.6 |
| 20260906000359 | 18 | 144 | 0.0 | 0.0 | 0.03 | 0.05 | 0.05 | 67 | 1018.6 |
| 20260906000114 | 18 | 144 | 0.0 | 0.0 | 0.03 | 0.05 | 0.05 | 73 | 1018.7 |
| 20260905235357 | 18 | 144 | 0.0 | 0.0 | 0.03 | 0.05 | 0.05 | 76 | 1018.7 |
| 20260905234853 | 18 | 144 | 0.0 | 0.0 | 0.03 | 0.05 | 0.05 | 74 | 1018.7 |
| 20260905234354 | 18 | 144 | 0.0 | 0.0 | 0.03 | 0.05 | 0.05 | 74 | 1018.6 |
| 20260905233851 | 18 | 144 | 0.0 | 0.0 | 0.03 | 0.05 | 0.05 | 69 | 1018.7 |
| 20260905233334 | 18 | 144 | 0.0 | 0.0 | 0.03 | 0.05 | 0.05 | 71 | 1018.7 |
| 20260905232833 | 18 | 144 | 0.0 | 0.0 | 0.03 | 0.05 | 0.05 | 70 | 1018.7 |
| 20260905232329 | 18 | 144 | 0.0 | 0.0 | 0.03 | 0.05 | 0.05 | 72 | 1018.8 |
| 20260905231825 | 17 | 144 | 0.0 | 0.0 | 0.03 | 0.05 | 0.05 | 69 | 1018.9 |
| 20260905231321 | 17 | 144 | 0.0 | 0.0 | 0.03 | 0.05 | 0.05 | 66 | 1018.8 |
| 20260905231038 | 17 | 144 | 0.0 | 0.0 | 0.00 | 0.03 | 0.05 | 69 | 1018.9 |
| 20260905230321 | 17 | 144 | 0.0 | 0.0 | 0.00 | 0.03 | 0.03 | 74 | 1018.9 |
| 20260905225820 | 17 | 144 | 0.0 | 0.0 | 0.00 | 0.03 | 0.03 | 71 | 1018.9 |
| 20260905225322 | 16 | 144 | 0.0 | 0.0 | 0.00 | 0.03 | 0.03 | 75 | 1018.9 |
| 20260905224816 | 16 | 144 | 0.0 | 0.0 | 0.00 | 0.03 | 0.03 | 71 | 1019.1 |
| 20260905224319 | 16 | 144 | 0.0 | 0.0 | 0.00 | 0.03 | 0.03 | 80 | 1019.1 |
| 20260905223809 | 16 | 144 | 0.0 | 0.0 | 0.00 | 0.03 | 0.03 | 83 | 1019.2 |
| 20260905223253 | 16 | 144 | 0.0 | 0.0 | 0.00 | 0.03 | 0.03 | 84 | 1019.2 |
| 20260905223016 | 16 | 144 | 0.0 | 0.0 | 0.00 | 0.03 | 0.03 | 83 | 1019.3 |
| 20260905222516 | 16 | 144 | 0.0 | 0.0 | 0.00 | 0.03 | 0.03 | 82 | 1019.3 |
| 20260905221741 | 16 | 144 | 0.0 | 0.0 | 0.00 | 0.03 | 0.03 | 80 | 1019.3 |
| 20260905221730 | 17 | 144 | 0.0 | 0.0 | 0.00 | 0.03 | 0.03 | 80 | 1019.5 |
| 20260905220739 | 17 | 144 | 0.0 | 0.0 | 0.00 | 0.03 | 0.03 | 80 | 1019.5 |
| 20260905220458 | 17 | 144 | 0.0 | 0.0 | 0.00 | 0.03 | 0.03 | 80 | 1019.6 |
| 20260905215731 | 17 | 144 | 0.0 | 0.0 | 0.00 | 0.03 | 0.03 | 78 | 1019.6 |
| 20260905215232 | 17 | 144 | 0.0 | 0.0 | 0.00 | 0.03 | 0.03 | 75 | 1019.7 |
| 20260905214956 | 17 | 144 | 0.0 | 0.0 | 0.00 | 0.03 | 0.03 | 74 | 1019.8 |
| 20260905214233 | 17 | 144 | 0.0 | 0.0 | 0.00 | 0.03 | 0.03 | 72 | 1019.7 |
| 20260905213735 | 17 | 144 | 0.0 | 0.0 | 0.00 | 0.03 | 0.03 | 73 | 1019.8 |
| 20260905213442 | 17 | 144 | 0.0 | 0.0 | 0.00 | 0.03 | 0.03 | 73 | 1019.8 |
| 20260905212717 | 17 | 144 | 0.0 | 0.0 | 0.00 | 0.03 | 0.03 | 72 | 1019.8 |
| 20260905212212 | 17 | 144 | 0.0 | 0.0 | 0.00 | 0.03 | 0.03 | 71 | 1019.8 |
| 20260905211713 | 18 | 144 | 0.0 | 0.0 | 0.00 | 0.03 | 0.03 | 69 | 1019.9 |
| 20260905211438 | 18 | 144 | 0.0 | 1.6 | 0.00 | 0.03 | 0.03 | 68 | 1019.9 |
| 20260905210713 | 18 | 144 | 0.0 | 1.6 | 0.00 | 0.03 | 0.03 | 63 | 1019.9 |
| 20260905210216 | 18 | 144 | 0.0 | 3.2 | 0.00 | 0.03 | 0.03 | 65 | 1019.9 |
| 20260905205709 | 17 | 144 | 0.0 | 3.2 | 0.00 | 0.03 | 0.03 | 64 | 1019.9 |
| 20260905205208 | 17 | 142 | 0.0 | 4.8 | 0.00 | 0.03 | 0.03 | 64 | 1019.9 |
| 20260905204704 | 17 | 142 | 0.0 | 4.8 | 0.00 | 0.03 | 0.03 | 64 | 1019.9 |
| 20260905204204 | 17 | 142 | 0.0 | 3.2 | 0.00 | 0.03 | 0.03 | 68 | 1019.9 |
| 20260905203649 | 17 | 142 | 0.0 | 3.2 | 0.00 | 0.03 | 0.03 | 67 | 1020.1 |
| 20260905203143 | 17 | 142 | 0.0 | 3.2 | 0.00 | 0.03 | 0.03 | 69 | 1019.9 |
| 20260905202638 | 17 | 131 | 0.0 | 0.0 | 0.00 | 0.03 | 0.03 | 68 | 1020.1 |
| 20260905202134 | 17 | 131 | 0.0 | 3.2 | 0.00 | 0.03 | 0.03 | 65 | 1020.2 |
| 20260905201848 | 17 | 131 | 0.0 | 3.2 | 0.00 | 0.03 | 0.03 | 65 | 1020.2 |
| 20260905201129 | 17 | 177 | 0.0 | 3.2 | 0.00 | 0.03 | 0.03 | 67 | 1020.1 |
| 20260905201115 | 17 | 177 | 0.0 | 3.2 | 0.00 | 0.03 | 0.03 | 67 | 1020.2 |
| 20260905200125 | 17 | 264 | 0.0 | 3.2 | 0.00 | 0.03 | 0.03 | 67 | 1020.2 |
| 20260905195627 | 17 | 140 | 0.0 | 4.8 | 0.00 | 0.03 | 0.03 | 68 | 1020.2 |
| 20260905195125 | 16 | 141 | 0.0 | 4.8 | 0.00 | 0.03 | 0.03 | 70 | 1020.3 |
| 20260905194624 | 16 | 141 | 0.0 | 1.6 | 0.00 | 0.03 | 0.03 | 72 | 1020.2 |
| 20260905194115 | 16 | 141 | 0.0 | 4.8 | 0.00 | 0.03 | 0.03 | 76 | 1020.3 |
| 20260905193615 | 16 | 140 | 0.0 | 4.8 | 0.00 | 0.03 | 0.03 | 71 | 1020.3 |
| 20260905193115 | 16 | 90 | 0.0 | 3.2 | 0.00 | 0.03 | 0.03 | 75 | 1020.3 |
| 20260905192610 | 15 | 329 | 0.0 | 3.2 | 0.00 | 0.03 | 0.03 | 77 | 1020.3 |
| 20260905192105 | 15 | 329 | 0.0 | 4.8 | 0.00 | 0.03 | 0.03 | 75 | 1020.4 |
| 20260905191608 | 15 | 329 | 0.0 | 4.8 | 0.00 | 0.03 | 0.03 | 74 | 1020.4 |
| 20260905191108 | 15 | 175 | 0.0 | 3.2 | 0.00 | 0.03 | 0.03 | 75 | 1020.5 |
| 20260905190606 | 15 | 174 | 0.0 | 8.0 | 0.00 | 0.03 | 0.03 | 77 | 1020.5 |
| 20260905190106 | 15 | 173 | 0.0 | 8.0 | 0.00 | 0.03 | 0.03 | 81 | 1020.5 |
| 20260905185606 | 15 | 158 | 0.0 | 0.0 | 0.00 | 0.03 | 0.03 | 80 | 1020.6 |
| 20260905185109 | 15 | 158 | 0.0 | 1.6 | 0.00 | 0.03 | 0.03 | 80 | 1020.5 |
| 20260905184551 | 14 | 158 | 0.0 | 3.2 | 0.00 | 0.03 | 0.03 | 79 | 1020.6 |
| 20260905184310 | 14 | 158 | 0.0 | 3.2 | 0.00 | 0.03 | 0.03 | 80 | 1020.6 |
| 20260905183800 | 14 | 292 | 0.0 | 0.0 | 0.00 | 0.03 | 0.03 | 83 | 1020.6 |
| 20260905183045 | 13 | 292 | 0.0 | 0.0 | 0.00 | 0.03 | 0.03 | 83 | 1020.6 |
| 20260905182802 | 13 | 292 | 0.0 | 0.0 | 0.00 | 0.03 | 0.03 | 86 | 1020.7 |
| 20260905182043 | 13 | 292 | 0.0 | 1.6 | 0.00 | 0.03 | 0.03 | 85 | 1020.7 |
| 20260905181543 | 13 | 292 | 0.0 | 1.6 | 0.00 | 0.03 | 0.03 | 89 | 1020.7 |
| 20260905181038 | 12 | 291 | 0.0 | 1.6 | 0.00 | 0.03 | 0.03 | 88 | 1020.7 |
| 20260905180537 | 12 | 291 | 0.0 | 0.0 | 0.00 | 0.03 | 0.03 | 86 | 1020.8 |
| 20260905180038 | 12 | 291 | 0.0 | 0.0 | 0.00 | 0.03 | 0.03 | 88 | 1020.8 |
| 20260905175538 | 12 | 291 | 0.0 | 0.0 | 0.00 | 0.03 | 0.03 | 89 | 1020.8 |
| 20260905175038 | 12 | 291 | 0.0 | 0.0 | 0.00 | 0.03 | 0.03 | 89 | 1021.1 |
| 20260905174528 | 12 | 291 | 0.0 | 0.0 | 0.00 | 0.03 | 0.03 | 89 | 1021.0 |
| 20260905174249 | 11 | 291 | 0.0 | 1.6 | 0.00 | 0.03 | 0.03 | 91 | 1021.0 |
| 20260905173522 | 11 | 291 | 0.0 | 1.6 | 0.00 | 0.03 | 0.03 | 92 | 1021.0 |
| 20260905173013 | 11 | 291 | 0.0 | 0.0 | 0.00 | 0.03 | 0.03 | 94 | 1021.0 |
| 20260905172513 | 11 | 291 | 0.0 | 4.8 | 0.00 | 0.03 | 0.03 | 96 | 1021.0 |
| 20260905172013 | 11 | 291 | 0.0 | 4.8 | 0.00 | 0.03 | 0.03 | 96 | 1021.0 |
| 20260905171731 | 11 | 293 | 0.0 | 1.6 | 0.00 | 0.03 | 0.03 | 97 | 1021.0 |
| 20260905171015 | 10 | 292 | 0.0 | 1.6 | 0.00 | 0.03 | 0.03 | 98 | 1021.0 |
| 20260905170511 | 10 | 293 | 0.0 | 0.0 | 0.00 | 0.03 | 0.03 | 98 | 1021.0 |
| 20260905170010 | 10 | 293 | 0.0 | 0.0 | 0.00 | 0.03 | 0.03 | 98 | 1021.0 |
| 20260905165509 | 10 | 293 | 0.0 | 0.0 | 0.00 | 0.03 | 0.03 | 97 | 1021.0 |
| 20260905165010 | 10 | 293 | 0.0 | 0.0 | 0.00 | 0.03 | 0.03 | 97 | 1021.0 |
| 20260905164732 | 10 | 293 | 0.0 | 0.0 | 0.00 | 0.03 | 0.03 | 97 | 1021.1 |
| 20260905164005 | 10 | 293 | 0.0 | 0.0 | 0.03 | 0.03 | 0.03 | 97 | 1021.1 |
| 20260905163733 | 10 | 293 | 0.0 | 0.0 | 0.03 | 0.03 | 0.03 | 97 | 1021.0 |
| 20260905163006 | 9 | 293 | 0.0 | 0.0 | 0.03 | 0.03 | 0.03 | 97 | 1021.0 |
| 20260905162506 | 9 | 293 | 0.0 | 1.6 | 0.03 | 0.03 | 0.03 | 97 | 1020.8 |
| 20260905162007 | 9 | 293 | 0.0 | 3.2 | 0.03 | 0.03 | 0.03 | 97 | 1021.0 |
| 20260905161501 | 10 | 293 | 0.0 | 3.2 | 0.03 | 0.03 | 0.03 | 97 | 1020.8 |
| 20260905161001 | 10 | 293 | 0.0 | 1.6 | 0.03 | 0.03 | 0.03 | 98 | 1020.8 |
| 20260905160457 | 10 | 293 | 0.0 | 0.0 | 0.03 | 0.03 | 0.03 | 98 | 1020.8 |
| 20260905155954 | 9 | 293 | 0.0 | 0.0 | 0.03 | 0.03 | 0.03 | 98 | 1020.6 |
| 20260905155452 | 9 | 293 | 0.0 | 0.0 | 0.03 | 0.03 | 0.03 | 98 | 1020.6 |
| 20260905154951 | 9 | 293 | 0.0 | 0.0 | 0.03 | 0.03 | 0.03 | 98 | 1020.6 |
| 20260905154455 | 9 | 293 | 0.0 | 0.0 | 0.03 | 0.03 | 0.03 | 98 | 1020.6 |
| 20260905153947 | 9 | 293 | 0.0 | 0.0 | 0.00 | 0.00 | 0.00 | 98 | 1020.6 |
| 20260905153442 | 9 | 293 | 0.0 | 0.0 | 0.00 | 0.00 | 0.00 | 98 | 1020.6 |
| 20260905153203 | 9 | 293 | 0.0 | 0.0 | 0.00 | 0.00 | 0.00 | 98 | 1020.6 |